Regional Weather Roundup
Issued by NWS Newport/Morehead, NC

Current Version | Previous Version | Graphics & Text | Print | Product List | Glossary Off
Versions: 1 2 3 4 5 6 7 8 9 10 11 12 13 14 15 16 17 18 19 20 21 22 23 24 25 26 27 28 29 30 31 32 33 34 35 36 37 38 39 40 41 42 43 44 45 46 47 48 49 50

831
ASUS42 KMHX 131225
RWRMHX
WEATHER ROUNDUP FOR EASTERN NORTH CAROLINA
NATIONAL WEATHER SERVICE NEWPORT/MOREHEAD CITY NC
700 AM EST SAT FEB 13 2016

NOTE: "FAIR" INDICATES FEW OR NO CLOUDS BELOW 12,000 FEET
WITH NO SIGNIFICANT WEATHER AND/OR OBSTRUCTIONS TO VISIBILITY

NCZ015>017-031-032-045>047-102-103-131300-
NORTH COAST

CITY           SKY/WX    TMP DP  RH WIND       PRES   REMARKS
EDENTON        PTCLDY    25  24  96 N3        30.16R
ELIZABETH CITY PTCLDY    21  19  92 W5        30.14R
KITTY HAWK     NOT AVBL
MANTEO         NOT AVBL

$$

NCZ045>047-081-094-103-104-131300-
CENTRAL COAST

CITY           SKY/WX    TMP DP  RH WIND       PRES   REMARKS
FRISCO         CLEAR     32  25  75 VRB7      30.12R
SWANQUARTER      N/A     27 N/A N/A NW2       30.12R

$$

NCZ095-097-098-100-101-131300-
SOUTHERN COAST

CITY           SKY/WX    TMP DP  RH WIND       PRES   REMARKS
BEAUFORT       CLEAR     32  27  81 NW12      30.15R
CEDAR ISLAND     N/A     34 N/A N/A W16G23    30.18R
JACKSONVILLE   CLEAR     28  25  88 W5        30.17R
PINEY ISLAND   SUNNY    N/A N/A N/A NW9       30.14R
WILMINGTON     CLEAR     29  25  85 W5        30.18R FOG


$$

NCZ011>013-027>030-043-044-078>080-089-090>093-098-131300-
COASTAL PLAIN

CITY           SKY/WX    TMP DP  RH WIND       PRES   REMARKS
AHOSKIE        NOT AVBL
CLINTON        CLEAR     28  28  99 CALM      30.19R
ELIZABETHTOWN  CLEAR     26  25  96 CALM      30.19R FOG
GOLDSBORO      CLEAR     30  21  69 NW9       30.15R
GREENVILLE     CLEAR     28  23  80 CALM      30.18R
HAVELOCK       CLEAR     30  26  85 NW7       30.16R
KENANSVILLE    CLEAR     28  25  88 CALM      30.19R
KINSTON        CLEAR     27  23  86 CALM      30.18R
NEW BERN       CLEAR     29  25  85 NW8       30.17R
RICHLANDS      CLEAR     27  21  80 CALM      30.18R
ROCKY MOUNT    CLEAR     28  16  60 NW9       30.17R
WASHINGTON     CLEAR     27  19  74 N5        30.16R
WHITEVILLE     CLEAR     27  26  94 CALM      30.18R FOG

$$

AMZ130-135-150-152-154-156-158-170-250-252-270-ANZ085-086-088-633-658-670-131300-
MARINE OBSERVATIONS

STATION/POSITION TIME  TEMP    WIND        PRES    WAVE   SWELL
                       AIR SEA DIR/SP/G            HT/PER HT/PER
                 (UTC) (F)     (DEG/KT/KT) (MB)    (FT/S) (FT/S)
CHESAPEAKE LIGHT 1200   30     340/ 29/ 31 1019.7
64 E VA BEACH    1150   35 48  320/ 23/ 29 1017.1    6/ 6   2/11
DUCK             1200   28     300/ 11/ 14 1019.2
2 E DUCK         1111      42                N/A     2/11
OREGON INLET     1200   30 40  300/  9/ 12 1019.7
13E OREGON INLT  1200      44                N/A     5/ 6   2/11
HATTERAS CG      1200   33 44  330/ 17/ 21 1019.5
DIAMOND BUOY     1150   38 71  340/ 19/ 25 1019.2    5/ 8   3/10
CAPE LOOKOUT     NOT AVBL
BEAUFORT LAB     1200   32 42  320/  6/ 12 1019.9
30 SE NEW RVR IN 1208   42 61              1020.2
30 SE NEW RVR IN 1125      61                N/A     5/ 5
27 SE WRIGHTSVLE 1208   43 59   10/ 17/ 27 1020.1
5 SE WRIGHTSVLE  NOT AVBL
225 S CAPE HAT   1150   60 68  310/ 17/ 23   N/A    10/10   7/10
41 SE CHARLESTON 1150   48 67  350/ 17/ 23 1021.2    4/ 4   2/ 9

$$




USA.gov is the U.S. government's official web portal to all federal, state and local government web resources and services.